iso_date,epoch_date,Year,Hour,Min,DOY,POS_DOY,Lat,Lon,BP,Ts,Ta,has_bp,has_ts,has_ta,BuoyID,Buoy_Type,Buoy_Owner,Logistics,Hemisphere
2019-02-16T16:20:38Z,1550334038,2019,16,20,47.681,47.681,70.20038,-148.44871,-999.00,-0.01,-999.0,no,yes,no,300234067522450,Sidekick,ASL,ARCX_2019,North
2019-02-16T16:30:43Z,1550334643,2019,16,30,47.688,47.688,70.20041,-148.44867,-999.00,1.74,-999.0,no,yes,no,300234067522450,Sidekick,ASL,ARCX_2019,North
2019-02-18T00:00:00Z,1550448000,2019,0,0,49.0,49.0,73.53571,-144.78326,-999.00,-10.27,-999.0,no,yes,no,300234067522450,Sidekick,ASL,ARCX_2019,North
2019-02-18T04:00:28Z,1550462429,2019,4,0,49.167,49.167,73.53907,-144.76998,-999.00,-14.35,-999.0,no,yes,no,300234067522450,Sidekick,ASL,ARCX_2019,North
2019-02-18T07:59:31Z,1550476771,2019,8,0,49.333,49.333,73.54058,-144.77057,-999.00,-17.95,-999.0,no,yes,no,300234067522450,Sidekick,ASL,ARCX_2019,North
2019-02-18T12:00:00Z,1550491200,2019,12,0,49.5,49.5,73.54408,-144.7878,-999.00,-20.95,-999.0,no,yes,no,300234067522450,Sidekick,ASL,ARCX_2019,North
2019-02-18T16:00:28Z,1550505629,2019,16,0,49.667,49.667,73.54887,-144.80452,-999.00,-17.98,-999.0,no,yes,no,300234067522450,Sidekick,ASL,ARCX_2019,North
2019-02-18T19:59:31Z,1550519971,2019,20,0,49.833,49.833,73.55327,-144.8398,-999.00,-15.54,-999.0,no,yes,no,300234067522450,Sidekick,ASL,ARCX_2019,North
2019-02-19T00:00:00Z,1550534400,2019,0,0,50.0,50.0,73.56033,-144.88082,-999.00,-16.5,-999.0,no,yes,no,300234067522450,Sidekick,ASL,ARCX_2019,North
2019-02-19T04:00:28Z,1550548829,2019,4,0,50.167,50.167,73.566,-144.91907,-999.00,-16.72,-999.0,no,yes,no,300234067522450,Sidekick,ASL,ARCX_2019,North
2019-02-19T07:59:31Z,1550563171,2019,8,0,50.333,50.333,73.56556,-144.96067,-999.00,-16.26,-999.0,no,yes,no,300234067522450,Sidekick,ASL,ARCX_2019,North
2019-02-19T12:00:00Z,1550577600,2019,12,0,50.5,50.5,73.56314,-145.02197,-999.00,-17.02,-999.0,no,yes,no,300234067522450,Sidekick,ASL,ARCX_2019,North
2019-02-19T16:00:28Z,1550592029,2019,16,0,50.667,50.667,73.55971,-145.07876,-999.00,-17.05,-999.0,no,yes,no,300234067522450,Sidekick,ASL,ARCX_2019,North
2019-02-19T19:59:31Z,1550606371,2019,20,0,50.833,50.833,73.54973,-145.10334,-999.00,-18.08,-999.0,no,yes,no,300234067522450,Sidekick,ASL,ARCX_2019,North
2019-02-20T00:00:00Z,1550620800,2019,0,0,51.0,51.0,73.53974,-145.12228,-999.00,-16.95,-999.0,no,yes,no,300234067522450,Sidekick,ASL,ARCX_2019,North
2019-02-20T04:00:28Z,1550635229,2019,4,0,51.167,51.167,73.53089,-145.1192,-999.00,-15.14,-999.0,no,yes,no,300234067522450,Sidekick,ASL,ARCX_2019,North
2019-02-20T07:59:31Z,1550649571,2019,8,0,51.333,51.333,73.52059,-145.10995,-999.00,-14.34,-999.0,no,yes,no,300234067522450,Sidekick,ASL,ARCX_2019,North
2019-02-20T12:00:00Z,1550664000,2019,12,0,51.5,51.5,73.51367,-145.09046,-999.00,-18.14,-999.0,no,yes,no,300234067522450,Sidekick,ASL,ARCX_2019,North
2019-02-20T16:00:28Z,1550678429,2019,16,0,51.667,51.667,73.51051,-145.06066,-999.00,-19.58,-999.0,no,yes,no,300234067522450,Sidekick,ASL,ARCX_2019,North
2019-02-20T19:59:31Z,1550692771,2019,20,0,51.833,51.833,73.50987,-145.02331,-999.00,-16.45,-999.0,no,yes,no,300234067522450,Sidekick,ASL,ARCX_2019,North
2019-02-21T00:00:00Z,1550707200,2019,0,0,52.0,52.0,73.51684,-144.96623,-999.00,-13.87,-999.0,no,yes,no,300234067522450,Sidekick,ASL,ARCX_2019,North
2019-02-21T04:00:28Z,1550721629,2019,4,0,52.167,52.167,73.52266,-144.87231,-999.00,-14.91,-999.0,no,yes,no,300234067522450,Sidekick,ASL,ARCX_2019,North
2019-02-21T07:59:31Z,1550735971,2019,8,0,52.333,52.333,73.51026,-144.86846,-999.00,-18.4,-999.0,no,yes,no,300234067522450,Sidekick,ASL,ARCX_2019,North
2019-02-21T12:00:00Z,1550750400,2019,12,0,52.5,52.5,73.49898,-144.91721,-999.00,-23.64,-999.0,no,yes,no,300234067522450,Sidekick,ASL,ARCX_2019,North
2019-02-21T16:00:28Z,1550764829,2019,16,0,52.667,52.667,73.49102,-144.92934,-999.00,-28.15,-999.0,no,yes,no,300234067522450,Sidekick,ASL,ARCX_2019,North
2019-02-21T19:59:31Z,1550779171,2019,20,0,52.833,52.833,73.48394,-144.93615,-999.00,-29.28,-999.0,no,yes,no,300234067522450,Sidekick,ASL,ARCX_2019,North
2019-02-22T00:00:00Z,1550793600,2019,0,0,53.0,53.0,73.47616,-144.93914,-999.00,-26.75,-999.0,no,yes,no,300234067522450,Sidekick,ASL,ARCX_2019,North
2019-02-22T04:00:28Z,1550808029,2019,4,0,53.167,53.167,73.47099,-144.93945,-999.00,-29.55,-999.0,no,yes,no,300234067522450,Sidekick,ASL,ARCX_2019,North
2019-02-22T07:59:31Z,1550822371,2019,8,0,53.333,53.333,73.46678,-144.93824,-999.00,-30.81,-999.0,no,yes,no,300234067522450,Sidekick,ASL,ARCX_2019,North
2019-02-22T12:00:00Z,1550836800,2019,12,0,53.5,53.5,73.46401,-144.93863,-999.00,-33.0,-999.0,no,yes,no,300234067522450,Sidekick,ASL,ARCX_2019,North
2019-02-22T16:00:28Z,1550851229,2019,16,0,53.667,53.667,73.46314,-144.94378,-999.00,-33.23,-999.0,no,yes,no,300234067522450,Sidekick,ASL,ARCX_2019,North
2019-02-22T19:59:31Z,1550865571,2019,20,0,53.833,53.833,73.46409,-144.9468,-999.00,-29.36,-999.0,no,yes,no,300234067522450,Sidekick,ASL,ARCX_2019,North
2019-02-23T00:00:00Z,1550880000,2019,0,0,54.0,54.0,73.46781,-144.95021,-999.00,-26.96,-999.0,no,yes,no,300234067522450,Sidekick,ASL,ARCX_2019,North
2019-02-23T04:00:28Z,1550894429,2019,4,0,54.167,54.167,73.47488,-144.96668,-999.00,-29.41,-999.0,no,yes,no,300234067522450,Sidekick,ASL,ARCX_2019,North
2019-02-23T07:59:31Z,1550908771,2019,8,0,54.333,54.333,73.48673,-144.998,-999.00,-27.93,-999.0,no,yes,no,300234067522450,Sidekick,ASL,ARCX_2019,North
2019-02-23T12:00:00Z,1550923200,2019,12,0,54.5,54.5,73.50144,-145.03682,-999.00,-26.23,-999.0,no,yes,no,300234067522450,Sidekick,ASL,ARCX_2019,North
2019-02-23T16:00:28Z,1550937629,2019,16,0,54.667,54.667,73.52624,-145.07508,-999.00,-24.61,-999.0,no,yes,no,300234067522450,Sidekick,ASL,ARCX_2019,North
2019-02-23T19:59:31Z,1550951971,2019,20,0,54.833,54.833,73.55913,-145.08688,-999.00,-19.51,-999.0,no,yes,no,300234067522450,Sidekick,ASL,ARCX_2019,North
2019-02-24T00:00:00Z,1550966400,2019,0,0,55.0,55.0,73.58682,-145.05016,-999.00,-14.11,-999.0,no,yes,no,300234067522450,Sidekick,ASL,ARCX_2019,North
2019-02-24T04:00:28Z,1550980829,2019,4,0,55.167,55.167,73.59173,-144.99087,-999.00,-7.37,-999.0,no,yes,no,300234067522450,Sidekick,ASL,ARCX_2019,North
2019-02-24T07:59:31Z,1550995171,2019,8,0,55.333,55.333,73.58499,-144.96071,-999.00,-7.88,-999.0,no,yes,no,300234067522450,Sidekick,ASL,ARCX_2019,North
2019-02-24T12:00:00Z,1551009600,2019,12,0,55.5,55.5,73.58051,-144.94219,-999.00,-14.15,-999.0,no,yes,no,300234067522450,Sidekick,ASL,ARCX_2019,North
2019-02-24T16:00:28Z,1551024029,2019,16,0,55.667,55.667,73.57788,-144.94665,-999.00,-17.06,-999.0,no,yes,no,300234067522450,Sidekick,ASL,ARCX_2019,North
2019-02-24T19:59:31Z,1551038371,2019,20,0,55.833,55.833,73.58238,-144.96815,-999.00,-10.5,-999.0,no,yes,no,300234067522450,Sidekick,ASL,ARCX_2019,North
2019-02-25T00:00:00Z,1551052800,2019,0,0,56.0,56.0,73.59288,-144.98461,-999.00,-7.17,-999.0,no,yes,no,300234067522450,Sidekick,ASL,ARCX_2019,North
2019-02-25T04:00:28Z,1551067229,2019,4,0,56.167,56.167,73.60917,-145.00652,-999.00,-9.46,-999.0,no,yes,no,300234067522450,Sidekick,ASL,ARCX_2019,North
2019-02-25T07:59:31Z,1551081571,2019,8,0,56.333,56.333,73.63745,-144.98461,-999.00,-6.49,-999.0,no,yes,no,300234067522450,Sidekick,ASL,ARCX_2019,North
2019-02-25T12:00:00Z,1551096000,2019,12,0,56.5,56.5,73.64149,-144.86441,-999.00,-6.53,-999.0,no,yes,no,300234067522450,Sidekick,ASL,ARCX_2019,North
2019-02-25T16:00:28Z,1551110429,2019,16,0,56.667,56.667,73.63728,-144.79501,-999.00,-7.58,-999.0,no,yes,no,300234067522450,Sidekick,ASL,ARCX_2019,North
2019-02-25T19:59:31Z,1551124771,2019,20,0,56.833,56.833,73.64564,-144.70397,-999.00,-6.2,-999.0,no,yes,no,300234067522450,Sidekick,ASL,ARCX_2019,North
2019-02-26T00:00:00Z,1551139200,2019,0,0,57.0,57.0,73.63836,-144.55688,-999.00,-5.64,-999.0,no,yes,no,300234067522450,Sidekick,ASL,ARCX_2019,North
2019-02-26T04:00:28Z,1551153629,2019,4,0,57.167,57.167,73.6132,-144.4618,-999.00,-10.13,-999.0,no,yes,no,300234067522450,Sidekick,ASL,ARCX_2019,North
2019-02-26T07:59:31Z,1551167971,2019,8,0,57.333,57.333,73.59536,-144.42532,-999.00,-15.87,-999.0,no,yes,no,300234067522450,Sidekick,ASL,ARCX_2019,North
2019-02-26T12:00:00Z,1551182400,2019,12,0,57.5,57.5,73.58083,-144.36863,-999.00,-17.74,-999.0,no,yes,no,300234067522450,Sidekick,ASL,ARCX_2019,North
2019-02-26T16:00:28Z,1551196829,2019,16,0,57.667,57.667,73.56019,-144.35987,-999.00,-18.99,-999.0,no,yes,no,300234067522450,Sidekick,ASL,ARCX_2019,North
2019-02-26T19:59:31Z,1551211171,2019,20,0,57.833,57.833,73.55427,-144.39693,-999.00,-16.97,-999.0,no,yes,no,300234067522450,Sidekick,ASL,ARCX_2019,North
2019-02-27T00:00:00Z,1551225600,2019,0,0,58.0,58.0,73.55173,-144.40622,-999.00,-16.68,-999.0,no,yes,no,300234067522450,Sidekick,ASL,ARCX_2019,North
2019-02-27T04:00:28Z,1551240029,2019,4,0,58.167,58.167,73.54593,-144.42667,-999.00,-19.93,-999.0,no,yes,no,300234067522450,Sidekick,ASL,ARCX_2019,North
2019-02-27T07:59:31Z,1551254371,2019,8,0,58.333,58.333,73.54957,-144.4741,-999.00,-18.87,-999.0,no,yes,no,300234067522450,Sidekick,ASL,ARCX_2019,North
2019-02-27T12:00:00Z,1551268800,2019,12,0,58.5,58.5,73.56158,-144.51344,-999.00,-18.55,-999.0,no,yes,no,300234067522450,Sidekick,ASL,ARCX_2019,North
2019-02-27T16:00:28Z,1551283229,2019,16,0,58.667,58.667,73.57471,-144.56276,-999.00,-16.08,-999.0,no,yes,no,300234067522450,Sidekick,ASL,ARCX_2019,North
2019-02-27T19:59:31Z,1551297571,2019,20,0,58.833,58.833,73.59663,-144.62867,-999.00,-14.23,-999.0,no,yes,no,300234067522450,Sidekick,ASL,ARCX_2019,North
2019-02-28T00:00:00Z,1551312000,2019,0,0,59.0,59.0,73.62486,-144.65802,-999.00,-12.12,-999.0,no,yes,no,300234067522450,Sidekick,ASL,ARCX_2019,North
2019-02-28T04:00:28Z,1551326429,2019,4,0,59.167,59.167,73.64104,-144.65373,-999.00,-15.21,-999.0,no,yes,no,300234067522450,Sidekick,ASL,ARCX_2019,North
2019-02-28T07:59:31Z,1551340771,2019,8,0,59.333,59.333,73.65751,-144.67731,-999.00,-14.53,-999.0,no,yes,no,300234067522450,Sidekick,ASL,ARCX_2019,North
2019-02-28T12:00:00Z,1551355200,2019,12,0,59.5,59.5,73.68027,-144.69062,-999.00,-14.66,-999.0,no,yes,no,300234067522450,Sidekick,ASL,ARCX_2019,North
2019-02-28T16:00:28Z,1551369629,2019,16,0,59.667,59.667,73.69692,-144.69351,-999.00,-16.24,-999.0,no,yes,no,300234067522450,Sidekick,ASL,ARCX_2019,North
2019-02-28T19:59:31Z,1551383971,2019,20,0,59.833,59.833,73.71728,-144.72111,-999.00,-14.93,-999.0,no,yes,no,300234067522450,Sidekick,ASL,ARCX_2019,North
2019-03-01T00:00:00Z,1551398400,2019,0,0,60.0,60.0,73.74789,-144.73224,-999.00,-12.96,-999.0,no,yes,no,300234067522450,Sidekick,ASL,ARCX_2019,North
2019-03-01T04:00:28Z,1551412829,2019,4,0,60.167,60.167,73.7712,-144.70375,-999.00,-12.89,-999.0,no,yes,no,300234067522450,Sidekick,ASL,ARCX_2019,North
2019-03-01T07:59:31Z,1551427171,2019,8,0,60.333,60.333,73.78257,-144.69172,-999.00,-12.19,-999.0,no,yes,no,300234067522450,Sidekick,ASL,ARCX_2019,North
2019-03-01T12:00:00Z,1551441600,2019,12,0,60.5,60.5,73.79561,-144.68681,-999.00,-12.79,-999.0,no,yes,no,300234067522450,Sidekick,ASL,ARCX_2019,North
2019-03-01T16:00:28Z,1551456029,2019,16,0,60.667,60.667,73.79893,-144.66563,-999.00,-13.49,-999.0,no,yes,no,300234067522450,Sidekick,ASL,ARCX_2019,North
2019-03-01T19:59:31Z,1551470371,2019,20,0,60.833,60.833,73.80095,-144.69668,-999.00,-3.61,-999.0,no,yes,no,300234067522450,Sidekick,ASL,ARCX_2019,North
2019-03-02T00:00:00Z,1551484800,2019,0,0,61.0,61.0,73.81446,-144.75332,-999.00,-9.52,-999.0,no,yes,no,300234067522450,Sidekick,ASL,ARCX_2019,North
2019-03-02T04:00:28Z,1551499229,2019,4,0,61.167,61.167,73.82781,-144.78797,-999.00,-13.56,-999.0,no,yes,no,300234067522450,Sidekick,ASL,ARCX_2019,North
2019-03-02T07:59:31Z,1551513571,2019,8,0,61.333,61.333,73.84129,-144.82783,-999.00,-15.36,-999.0,no,yes,no,300234067522450,Sidekick,ASL,ARCX_2019,North
2019-03-02T12:00:00Z,1551528000,2019,12,0,61.5,61.5,73.85762,-144.85755,-999.00,-16.12,-999.0,no,yes,no,300234067522450,Sidekick,ASL,ARCX_2019,North
2019-03-02T16:00:28Z,1551542429,2019,16,0,61.667,61.667,73.86874,-144.8678,-999.00,-16.98,-999.0,no,yes,no,300234067522450,Sidekick,ASL,ARCX_2019,North
2019-03-02T19:59:31Z,1551556771,2019,20,0,61.833,61.833,73.87744,-144.88427,-999.00,-7.28,-999.0,no,yes,no,300234067522450,Sidekick,ASL,ARCX_2019,North
2019-03-03T00:00:00Z,1551571200,2019,0,0,62.0,62.0,73.88786,-144.9036,-999.00,-10.52,-999.0,no,yes,no,300234067522450,Sidekick,ASL,ARCX_2019,North
2019-03-03T04:00:28Z,1551585629,2019,4,0,62.167,62.167,73.89516,-144.91054,-999.00,-16.0,-999.0,no,yes,no,300234067522450,Sidekick,ASL,ARCX_2019,North
2019-03-03T07:59:31Z,1551599971,2019,8,0,62.333,62.333,73.90184,-144.91599,-999.00,-19.01,-999.0,no,yes,no,300234067522450,Sidekick,ASL,ARCX_2019,North
2019-03-03T12:00:00Z,1551614400,2019,12,0,62.5,62.5,73.90589,-144.90361,-999.00,-18.39,-999.0,no,yes,no,300234067522450,Sidekick,ASL,ARCX_2019,North
2019-03-03T16:00:28Z,1551628829,2019,16,0,62.667,62.667,73.90389,-144.86398,-999.00,-16.17,-999.0,no,yes,no,300234067522450,Sidekick,ASL,ARCX_2019,North
2019-03-03T19:59:31Z,1551643171,2019,20,0,62.833,62.833,73.8949,-144.80565,-999.00,-9.51,-999.0,no,yes,no,300234067522450,Sidekick,ASL,ARCX_2019,North
2019-03-04T00:00:00Z,1551657600,2019,0,0,63.0,63.0,73.88599,-144.76719,-999.00,-6.06,-999.0,no,yes,no,300234067522450,Sidekick,ASL,ARCX_2019,North
2019-03-04T04:00:28Z,1551672029,2019,4,0,63.167,63.167,73.87841,-144.71427,-999.00,-12.96,-999.0,no,yes,no,300234067522450,Sidekick,ASL,ARCX_2019,North
2019-03-04T07:59:31Z,1551686371,2019,8,0,63.333,63.333,73.8665,-144.66594,-999.00,-14.67,-999.0,no,yes,no,300234067522450,Sidekick,ASL,ARCX_2019,North
2019-03-04T12:00:00Z,1551700800,2019,12,0,63.5,63.5,73.86288,-144.6616,-999.00,-16.04,-999.0,no,yes,no,300234067522450,Sidekick,ASL,ARCX_2019,North
2019-03-04T16:00:28Z,1551715229,2019,16,0,63.667,63.667,73.87063,-144.65432,-999.00,-13.09,-999.0,no,yes,no,300234067522450,Sidekick,ASL,ARCX_2019,North
2019-03-04T19:59:31Z,1551729571,2019,20,0,63.833,63.833,73.87804,-144.64056,-999.00,-8.81,-999.0,no,yes,no,300234067522450,Sidekick,ASL,ARCX_2019,North
2019-03-05T00:00:00Z,1551744000,2019,0,0,64.0,64.0,73.89077,-144.65932,-999.00,-10.11,-999.0,no,yes,no,300234067522450,Sidekick,ASL,ARCX_2019,North
2019-03-05T04:00:28Z,1551758429,2019,4,0,64.167,64.167,73.90116,-144.66081,-999.00,-12.73,-999.0,no,yes,no,300234067522450,Sidekick,ASL,ARCX_2019,North
2019-03-05T07:59:31Z,1551772771,2019,8,0,64.333,64.333,73.9043,-144.66701,-999.00,-15.67,-999.0,no,yes,no,300234067522450,Sidekick,ASL,ARCX_2019,North
2019-03-05T12:00:00Z,1551787200,2019,12,0,64.5,64.5,73.90618,-144.67341,-999.00,-17.66,-999.0,no,yes,no,300234067522450,Sidekick,ASL,ARCX_2019,North
2019-03-05T16:00:28Z,1551801629,2019,16,0,64.667,64.667,73.90657,-144.67266,-999.00,-17.55,-999.0,no,yes,no,300234067522450,Sidekick,ASL,ARCX_2019,North
2019-03-05T19:59:31Z,1551815971,2019,20,0,64.833,64.833,73.90628,-144.67174,-999.00,-13.77,-999.0,no,yes,no,300234067522450,Sidekick,ASL,ARCX_2019,North
2019-03-06T00:00:00Z,1551830400,2019,0,0,65.0,65.0,73.90608,-144.67348,-999.00,-9.83,-999.0,no,yes,no,300234067522450,Sidekick,ASL,ARCX_2019,North
2019-03-06T04:00:28Z,1551844829,2019,4,0,65.167,65.167,73.90606,-144.68044,-999.00,-9.73,-999.0,no,yes,no,300234067522450,Sidekick,ASL,ARCX_2019,North
2019-03-06T07:59:31Z,1551859171,2019,8,0,65.333,65.333,73.90587,-144.68756,-999.00,-9.42,-999.0,no,yes,no,300234067522450,Sidekick,ASL,ARCX_2019,North
2019-03-06T12:00:00Z,1551873600,2019,12,0,65.5,65.5,73.90741,-144.70647,-999.00,-9.08,-999.0,no,yes,no,300234067522450,Sidekick,ASL,ARCX_2019,North
2019-03-06T16:00:28Z,1551888029,2019,16,0,65.667,65.667,73.91325,-144.727,-999.00,-8.78,-999.0,no,yes,no,300234067522450,Sidekick,ASL,ARCX_2019,North
2019-03-06T19:59:31Z,1551902371,2019,20,0,65.833,65.833,73.92101,-144.74908,-999.00,-8.67,-999.0,no,yes,no,300234067522450,Sidekick,ASL,ARCX_2019,North
2019-03-07T00:00:00Z,1551916800,2019,0,0,66.0,66.0,73.93235,-144.76878,-999.00,-7.75,-999.0,no,yes,no,300234067522450,Sidekick,ASL,ARCX_2019,North
2019-03-07T04:00:28Z,1551931229,2019,4,0,66.167,66.167,73.94434,-144.77161,-999.00,-9.02,-999.0,no,yes,no,300234067522450,Sidekick,ASL,ARCX_2019,North
2019-03-07T07:59:31Z,1551945571,2019,8,0,66.333,66.333,73.95212,-144.76781,-999.00,-8.63,-999.0,no,yes,no,300234067522450,Sidekick,ASL,ARCX_2019,North
2019-03-07T12:00:00Z,1551960000,2019,12,0,66.5,66.5,73.95336,-144.76023,-999.00,-8.36,-999.0,no,yes,no,300234067522450,Sidekick,ASL,ARCX_2019,North
2019-03-07T16:00:28Z,1551974429,2019,16,0,66.667,66.667,73.94653,-144.72901,-999.00,-15.07,-999.0,no,yes,no,300234067522450,Sidekick,ASL,ARCX_2019,North
2019-03-07T19:59:31Z,1551988771,2019,20,0,66.833,66.833,73.9314,-144.69031,-999.00,-5.72,-999.0,no,yes,no,300234067522450,Sidekick,ASL,ARCX_2019,North
2019-03-08T00:00:00Z,1552003200,2019,0,0,67.0,67.0,73.91298,-144.67169,-999.00,-11.06,-999.0,no,yes,no,300234067522450,Sidekick,ASL,ARCX_2019,North
2019-03-08T04:00:28Z,1552017629,2019,4,0,67.167,67.167,73.89629,-144.65627,-999.00,-14.84,-999.0,no,yes,no,300234067522450,Sidekick,ASL,ARCX_2019,North
2019-03-08T07:59:31Z,1552031971,2019,8,0,67.333,67.333,73.8819,-144.6472,-999.00,-15.7,-999.0,no,yes,no,300234067522450,Sidekick,ASL,ARCX_2019,North
2019-03-08T12:00:00Z,1552046400,2019,12,0,67.5,67.5,73.8723,-144.64999,-999.00,-16.19,-999.0,no,yes,no,300234067522450,Sidekick,ASL,ARCX_2019,North
2019-03-08T16:00:28Z,1552060829,2019,16,0,67.667,67.667,73.86751,-144.66329,-999.00,-16.37,-999.0,no,yes,no,300234067522450,Sidekick,ASL,ARCX_2019,North
2019-03-08T19:59:31Z,1552075171,2019,20,0,67.833,67.833,73.86665,-144.68787,-999.00,-16.35,-999.0,no,yes,no,300234067522450,Sidekick,ASL,ARCX_2019,North
2019-03-09T00:00:00Z,1552089600,2019,0,0,68.0,68.0,73.86796,-144.71844,-999.00,-16.44,-999.0,no,yes,no,300234067522450,Sidekick,ASL,ARCX_2019,North
2019-03-09T04:00:28Z,1552104029,2019,4,0,68.167,68.167,73.87194,-144.75856,-999.00,-17.9,-999.0,no,yes,no,300234067522450,Sidekick,ASL,ARCX_2019,North
2019-03-09T07:59:31Z,1552118371,2019,8,0,68.333,68.333,73.87528,-144.81488,-999.00,-19.06,-999.0,no,yes,no,300234067522450,Sidekick,ASL,ARCX_2019,North
2019-03-09T12:00:00Z,1552132800,2019,12,0,68.5,68.5,73.87772,-144.88449,-999.00,-18.3,-999.0,no,yes,no,300234067522450,Sidekick,ASL,ARCX_2019,North
2019-03-09T16:00:28Z,1552147229,2019,16,0,68.667,68.667,73.87683,-144.96215,-999.00,-17.54,-999.0,no,yes,no,300234067522450,Sidekick,ASL,ARCX_2019,North
2019-03-09T19:59:31Z,1552161571,2019,20,0,68.833,68.833,73.87354,-145.03281,-999.00,-16.67,-999.0,no,yes,no,300234067522450,Sidekick,ASL,ARCX_2019,North
2019-03-10T00:00:00Z,1552176000,2019,0,0,69.0,69.0,73.86624,-145.09477,-999.00,-13.81,-999.0,no,yes,no,300234067522450,Sidekick,ASL,ARCX_2019,North
2019-03-10T04:00:28Z,1552190429,2019,4,0,69.167,69.167,73.85628,-145.14795,-999.00,-20.38,-999.0,no,yes,no,300234067522450,Sidekick,ASL,ARCX_2019,North
2019-03-10T07:59:31Z,1552204771,2019,8,0,69.333,69.333,73.84572,-145.1948,-999.00,-24.74,-999.0,no,yes,no,300234067522450,Sidekick,ASL,ARCX_2019,North
2019-03-10T12:00:00Z,1552219200,2019,12,0,69.5,69.5,73.83574,-145.23306,-999.00,-28.17,-999.0,no,yes,no,300234067522450,Sidekick,ASL,ARCX_2019,North
2019-03-10T16:00:28Z,1552233629,2019,16,0,69.667,69.667,73.82493,-145.28037,-999.00,-29.83,-999.0,no,yes,no,300234067522450,Sidekick,ASL,ARCX_2019,North
2019-03-10T19:59:31Z,1552247971,2019,20,0,69.833,69.833,73.81551,-145.34145,-999.00,-24.62,-999.0,no,yes,no,300234067522450,Sidekick,ASL,ARCX_2019,North
2019-03-11T00:00:00Z,1552262400,2019,0,0,70.0,70.0,73.80429,-145.40419,-999.00,-19.5,-999.0,no,yes,no,300234067522450,Sidekick,ASL,ARCX_2019,North
2019-03-11T04:00:28Z,1552276829,2019,4,0,70.167,70.167,73.79364,-145.46001,-999.00,-29.98,-999.0,no,yes,no,300234067522450,Sidekick,ASL,ARCX_2019,North
2019-03-11T07:59:31Z,1552291171,2019,8,0,70.333,70.333,73.78019,-145.51524,-999.00,-33.82,-999.0,no,yes,no,300234067522450,Sidekick,ASL,ARCX_2019,North
2019-03-11T12:00:00Z,1552305600,2019,12,0,70.5,70.5,73.76309,-145.55719,-999.00,-35.2,-999.0,no,yes,no,300234067522450,Sidekick,ASL,ARCX_2019,North
2019-03-11T16:00:28Z,1552320029,2019,16,0,70.667,70.667,73.74924,-145.58545,-999.00,-35.77,-999.0,no,yes,no,300234067522450,Sidekick,ASL,ARCX_2019,North
2019-03-11T19:59:31Z,1552334371,2019,20,0,70.833,70.833,73.7374,-145.58711,-999.00,-21.07,-999.0,no,yes,no,300234067522450,Sidekick,ASL,ARCX_2019,North
2019-03-12T00:00:00Z,1552348800,2019,0,0,71.0,71.0,73.72413,-145.58291,-999.00,-23.66,-999.0,no,yes,no,300234067522450,Sidekick,ASL,ARCX_2019,North
2019-03-12T04:00:28Z,1552363229,2019,4,0,71.167,71.167,73.71634,-145.57712,-999.00,-31.06,-999.0,no,yes,no,300234067522450,Sidekick,ASL,ARCX_2019,North
2019-03-12T07:59:31Z,1552377571,2019,8,0,71.333,71.333,73.71078,-145.56477,-999.00,-31.11,-999.0,no,yes,no,300234067522450,Sidekick,ASL,ARCX_2019,North
2019-03-12T12:00:00Z,1552392000,2019,12,0,71.5,71.5,73.70544,-145.54919,-999.00,-31.17,-999.0,no,yes,no,300234067522450,Sidekick,ASL,ARCX_2019,North
2019-03-12T16:00:28Z,1552406429,2019,16,0,71.667,71.667,73.70105,-145.54049,-999.00,-31.38,-999.0,no,yes,no,300234067522450,Sidekick,ASL,ARCX_2019,North
2019-03-12T19:59:31Z,1552420771,2019,20,0,71.833,71.833,73.69748,-145.53201,-999.00,-16.81,-999.0,no,yes,no,300234067522450,Sidekick,ASL,ARCX_2019,North
2019-03-13T00:00:00Z,1552435200,2019,0,0,72.0,72.0,73.69293,-145.51962,-999.00,-20.44,-999.0,no,yes,no,300234067522450,Sidekick,ASL,ARCX_2019,North
2019-03-13T04:00:28Z,1552449629,2019,4,0,72.167,72.167,73.69118,-145.51666,-999.00,-30.34,-999.0,no,yes,no,300234067522450,Sidekick,ASL,ARCX_2019,North
2019-03-13T07:59:31Z,1552463971,2019,8,0,72.333,72.333,73.69115,-145.5168,-999.00,-33.41,-999.0,no,yes,no,300234067522450,Sidekick,ASL,ARCX_2019,North
2019-03-13T12:00:00Z,1552478400,2019,12,0,72.5,72.5,73.69116,-145.51691,-999.00,-34.29,-999.0,no,yes,no,300234067522450,Sidekick,ASL,ARCX_2019,North
2019-03-13T16:00:28Z,1552492829,2019,16,0,72.667,72.667,73.69118,-145.51726,-999.00,-34.71,-999.0,no,yes,no,300234067522450,Sidekick,ASL,ARCX_2019,North
2019-03-13T19:59:31Z,1552507171,2019,20,0,72.833,72.833,73.69123,-145.51794,-999.00,-7.21,-999.0,no,yes,no,300234067522450,Sidekick,ASL,ARCX_2019,North
2019-03-14T00:00:00Z,1552521600,2019,0,0,73.0,73.0,73.69159,-145.53031,-999.00,-10.22,-999.0,no,yes,no,300234067522450,Sidekick,ASL,ARCX_2019,North
2019-03-14T04:00:28Z,1552536029,2019,4,0,73.167,73.167,73.69418,-145.55908,-999.00,-28.95,-999.0,no,yes,no,300234067522450,Sidekick,ASL,ARCX_2019,North
2019-03-14T07:59:31Z,1552550371,2019,8,0,73.333,73.333,73.69911,-145.58385,-999.00,-30.77,-999.0,no,yes,no,300234067522450,Sidekick,ASL,ARCX_2019,North
2019-03-14T12:00:00Z,1552564800,2019,12,0,73.5,73.5,73.70513,-145.60614,-999.00,-31.91,-999.0,no,yes,no,300234067522450,Sidekick,ASL,ARCX_2019,North
2019-03-14T16:00:28Z,1552579229,2019,16,0,73.667,73.667,73.70992,-145.64161,-999.00,-31.11,-999.0,no,yes,no,300234067522450,Sidekick,ASL,ARCX_2019,North
2019-03-14T19:59:31Z,1552593571,2019,20,0,73.833,73.833,73.71619,-145.69381,-999.00,-14.31,-999.0,no,yes,no,300234067522450,Sidekick,ASL,ARCX_2019,North
2019-03-15T00:00:00Z,1552608000,2019,0,0,74.0,74.0,73.72278,-145.76424,-999.00,-17.32,-999.0,no,yes,no,300234067522450,Sidekick,ASL,ARCX_2019,North
2019-03-15T04:00:28Z,1552622429,2019,4,0,74.167,74.167,73.72966,-145.84939,-999.00,-25.56,-999.0,no,yes,no,300234067522450,Sidekick,ASL,ARCX_2019,North
2019-03-15T07:59:31Z,1552636771,2019,8,0,74.333,74.333,73.7403,-145.94079,-999.00,-26.45,-999.0,no,yes,no,300234067522450,Sidekick,ASL,ARCX_2019,North
2019-03-15T12:00:00Z,1552651200,2019,12,0,74.5,74.5,73.74865,-146.02961,-999.00,-25.99,-999.0,no,yes,no,300234067522450,Sidekick,ASL,ARCX_2019,North
2019-03-15T16:00:28Z,1552665629,2019,16,0,74.667,74.667,73.75172,-146.11445,-999.00,-26.23,-999.0,no,yes,no,300234067522450,Sidekick,ASL,ARCX_2019,North
2019-03-15T19:59:31Z,1552679971,2019,20,0,74.833,74.833,73.75268,-146.19604,-999.00,-15.66,-999.0,no,yes,no,300234067522450,Sidekick,ASL,ARCX_2019,North